Geostationary
NORAD ID: 37776
Int'l Code: 2011-041B
Perigee: 35,793.2 km
Apogee: 35,793.9 km
Inclination: 0.0 °
Period: 1,436.1 minutes
Semi major axis: 42164 km
Launch date: August 6, 2011
Source: Japan (JPN)
Two Line Element Set (TLE):
1 37776U 11041B 13141.58168661 -.00000348 00000-0 00000+0 0 4303
2 37776 000.0481 081.6607 0000075 171.2210 305.8990 01.00272457 6670
Source:
NASA's NSSDC Master Catalog entry for BSAT-3C